GW3580 Weather Reports


time (UTC)temp
C
wind
direction
speed
KPH
gust
KPH
rain 1hr
cm
rain 24hr
cm
rain mn
cm
humidity
%
barometer
mb
20260509205608 28 261 4.8 6.4 0.00 0.00 0.00 42 1011.8
20260509205103 28 228 3.2 6.4 0.00 0.00 0.00 42 1011.8
20260509204600 28 309 1.6 1.6 0.00 0.00 0.00 41 1012.0
20260509204056 28 284 3.2 6.4 0.00 0.00 0.00 40 1011.8
20260509203552 28 248 1.6 3.2 0.00 0.00 0.00 42 1011.8
20260509203051 28 259 4.8 6.4 0.00 0.00 0.00 40 1012.0
20260509202545 28 15 1.6 1.6 0.00 0.00 0.00 42 1012.1
20260509202041 28 303 3.2 3.2 0.00 0.00 0.00 42 1012.2
20260509201536 28 277 6.4 8.0 0.00 0.00 0.00 41 1012.1
20260509201034 28 252 8.0 8.0 0.00 0.00 0.00 41 1012.2
20260509200527 27 237 4.8 6.4 0.00 0.00 0.00 42 1012.1
20260509200024 27 216 0.0 1.6 0.00 0.00 0.00 43 1012.2
20260509195520 27 275 1.6 1.6 0.00 0.00 0.00 43 1012.3
20260509195020 27 2 1.6 3.2 0.00 0.00 0.00 43 1012.3
20260509194515 26 255 3.2 3.2 0.00 0.00 0.00 45 1012.4
20260509194013 27 235 3.2 6.4 0.00 0.00 0.00 44 1012.4
20260509193513 27 223 3.2 3.2 0.00 0.00 0.00 44 1012.6
20260509193010 27 76 0.0 0.0 0.00 0.00 0.00 43 1012.6
20260509192506 27 247 3.2 3.2 0.00 0.00 0.00 42 1012.7
20260509192001 26 47 3.2 3.2 0.00 0.00 0.00 43 1012.6
20260509191456 26 336 1.6 1.6 0.00 0.00 0.00 44 1012.7
20260509190952 26 230 1.6 1.6 0.00 0.00 0.00 45 1012.8
20260509190449 26 253 4.8 8.0 0.00 0.00 0.00 45 1012.9
20260509185947 26 266 3.2 6.4 0.00 0.00 0.00 45 1013.0
20260509185444 25 12 1.6 1.6 0.00 0.00 0.00 47 1012.9
20260509184940 25 306 0.0 1.6 0.00 0.00 0.00 46 1013.1
20260509184439 25 298 1.6 6.4 0.00 0.00 0.00 47 1013.3
20260509183935 25 246 1.6 1.6 0.00 0.00 0.00 49 1013.1
20260509183429 25 340 3.2 3.2 0.00 0.00 0.00 47 1013.1
20260509182926 24 214 1.6 1.6 0.00 0.00 0.00 48 1013.3
20260509182422 25 342 1.6 3.2 0.00 0.00 0.00 48 1013.3
20260509181920 25 0 1.6 1.6 0.00 0.00 0.00 47 1013.4
20260509181418 23 260 3.2 6.4 0.00 0.00 0.00 49 1013.3
20260509180914 23 222 3.2 3.2 0.00 0.00 0.00 49 1013.2
20260509180409 23 261 3.2 3.2 0.00 0.00 0.00 49 1013.2
20260509175907 23 284 1.6 1.6 0.00 0.00 0.00 49 1013.5
20260509175402 24 305 4.8 8.0 0.00 0.00 0.00 49 1013.2
20260509174854 23 60 1.6 3.2 0.00 0.00 0.00 49 1013.3
20260509174350 23 344 1.6 1.6 0.00 0.00 0.00 50 1013.4
20260509173846 23 262 4.8 8.0 0.00 0.00 0.00 49 1013.5
20260509173341 23 263 3.2 3.2 0.00 0.00 0.00 51 1013.4
20260509172837 23 252 3.2 3.2 0.00 0.00 0.00 51 1013.6
20260509172334 22 331 0.0 0.0 0.00 0.00 0.00 50 1013.5
20260509171830 23 257 1.6 1.6 0.00 0.00 0.00 51 1013.4
20260509171326 22 256 3.2 6.4 0.00 0.00 0.00 52 1013.6
20260509170823 22 274 6.4 8.0 0.00 0.00 0.00 55 1013.6
20260509170319 22 241 1.6 1.6 0.00 0.00 0.00 54 1013.5
20260509165818 21 256 6.4 8.0 0.00 0.00 0.00 54 1013.7
20260509165313 22 257 1.6 3.2 0.00 0.00 0.00 56 1013.8
20260509164809 22 260 1.6 1.6 0.00 0.00 0.00 56 1013.6
20260509164306 21 273 0.0 1.6 0.00 0.00 0.00 56 1013.8
20260509163802 21 221 3.2 3.2 0.00 0.00 0.00 57 1013.8
20260509163258 21 266 6.4 8.0 0.00 0.00 0.00 57 1013.7
20260509162758 20 245 4.8 8.0 0.00 0.00 0.00 59 1013.8
20260509162251 20 256 3.2 3.2 0.00 0.00 0.00 59 1013.6
20260509161747 20 231 1.6 3.2 0.00 0.00 0.00 61 1013.5
20260509161243 20 262 3.2 6.4 0.00 0.00 0.00 62 1013.6
20260509160739 20 245 3.2 3.2 0.00 0.00 0.00 64 1013.8
20260509160236 18 267 1.6 3.2 0.00 0.00 0.00 67 1013.7
20260509155731 18 307 0.0 0.0 0.00 0.00 0.00 68 1013.8
20260509155228 18 261 1.6 1.6 0.00 0.00 0.00 68 1013.7
20260509154724 17 305 3.2 6.4 0.00 0.00 0.00 69 1014.0
20260509154221 17 263 3.2 3.2 0.00 0.00 0.00 70 1013.7
20260509153718 17 264 3.2 3.2 0.00 0.00 0.00 71 1013.7
20260509153214 17 269 4.8 6.4 0.00 0.00 0.00 72 1013.9
20260509152710 16 266 1.6 1.6 0.00 0.00 0.00 72 1013.7
20260509152207 16 291 1.6 1.6 0.00 0.00 0.00 73 1013.7
20260509151704 16 256 3.2 3.2 0.00 0.00 0.00 73 1013.6
20260509151201 16 262 3.2 3.2 0.00 0.00 0.00 73 1013.7
20260509150659 16 279 1.6 1.6 0.00 0.00 0.00 74 1013.4
20260509150157 16 282 3.2 3.2 0.00 0.00 0.00 74 1013.5
20260509145653 16 272 3.2 3.2 0.00 0.00 0.00 74 1013.5
20260509145148 15 278 0.0 1.6 0.00 0.00 0.00 74 1013.6
20260509144645 15 343 0.0 0.0 0.00 0.00 0.00 75 1013.8
20260509144142 16 264 8.0 9.7 0.00 0.00 0.00 74 1013.8
20260509143639 16 41 0.0 0.0 0.00 0.00 0.00 72 1013.7
20260509143137 15 60 0.0 0.0 0.00 0.00 0.00 73 1013.7
20260509142632 15 41 0.0 1.6 0.00 0.00 0.00 75 1013.7
20260509142129 15 359 0.0 1.6 0.00 0.00 0.00 76 1013.6
20260509141625 15 339 0.0 1.6 0.00 0.00 0.00 76 1013.7
20260509141121 15 35 0.0 0.0 0.00 0.00 0.00 75 1013.6
20260509140618 14 37 0.0 1.6 0.00 0.00 0.00 76 1013.6
20260509140116 14 31 0.0 0.0 0.00 0.00 0.00 77 1013.4
20260509135613 13 30 0.0 0.0 0.00 0.00 0.00 80 1013.4
20260509135111 13 30 0.0 0.0 0.00 0.00 0.00 81 1013.2
20260509134607 13 31 0.0 0.0 0.00 0.00 0.00 81 1013.3
20260509134105 13 31 0.0 0.0 0.00 0.00 0.00 82 1013.1
20260509133602 12 31 0.0 0.0 0.00 0.00 0.00 82 1013.1
20260509133059 12 31 0.0 0.0 0.00 0.00 0.00 82 1013.1
20260509132557 13 12 0.0 0.0 0.00 0.00 0.00 83 1013.0
20260509132056 13 14 0.0 0.0 0.00 0.00 0.00 82 1013.1
20260509131551 13 2 0.0 0.0 0.00 0.00 0.00 82 1013.0
20260509131048 13 350 0.0 0.0 0.00 0.00 0.00 82 1012.8
20260509130544 13 352 0.0 0.0 0.00 0.00 0.00 82 1012.7
20260509130041 13 282 0.0 0.0 0.00 0.00 0.00 81 1012.7
20260509125537 13 282 0.0 0.0 0.00 0.00 0.00 81 1012.7
20260509125034 13 279 1.6 1.6 0.00 0.00 0.00 81 1012.7
20260509124530 13 279 0.0 0.0 0.00 0.00 0.00 82 1012.7
20260509124028 13 257 0.0 0.0 0.00 0.00 0.00 84 1012.7
20260509123526 13 273 0.0 1.6 0.00 0.00 0.00 85 1012.7
20260509123022 13 307 0.0 0.0 0.00 0.00 0.00 85 1012.4
20260509122518 13 331 0.0 0.0 0.00 0.00 0.00 85 1012.4
20260509122015 13 331 0.0 0.0 0.00 0.00 0.00 85 1012.9
20260509121512 13 331 0.0 0.0 0.00 0.00 0.00 85 1012.7
20260509121010 13 331 0.0 0.0 0.00 0.00 0.00 85 1012.6
20260509120508 13 331 0.0 0.0 0.00 0.00 0.00 85 1012.8
20260509120006 13 331 0.0 0.0 0.00 0.00 0.00 84 1012.7
20260509115502 13 331 0.0 0.0 0.00 0.00 0.00 84 1012.6
20260509115000 13 331 0.0 0.0 0.00 0.00 0.00 84 1012.6
20260509114458 13 331 0.0 0.0 0.00 0.00 0.00 84 1012.7
20260509113957 13 331 0.0 0.0 0.00 0.00 0.00 83 1012.6
20260509113454 13 334 0.0 0.0 0.00 0.00 0.00 83 1012.6
20260509112951 13 334 0.0 0.0 0.00 0.00 0.00 83 1012.8
20260509112448 13 333 0.0 0.0 0.00 0.00 0.00 83 1012.6
20260509111944 13 333 0.0 0.0 0.00 0.00 0.00 82 1012.8
20260509111442 13 334 0.0 0.0 0.00 0.00 0.00 82 1012.8
20260509110940 13 333 0.0 0.0 0.00 0.00 0.00 82 1012.6
20260509110435 13 332 0.0 0.0 0.00 0.00 0.00 82 1012.8
20260509105933 13 332 0.0 0.0 0.00 0.00 0.00 82 1012.7
20260509105432 13 332 0.0 0.0 0.00 0.00 0.00 81 1012.9
20260509104928 13 331 0.0 0.0 0.00 0.00 0.00 81 1012.6
20260509104425 14 330 0.0 0.0 0.00 0.00 0.00 81 1012.7
20260509103922 14 34 0.0 0.0 0.00 0.00 0.00 81 1012.7
20260509103420 14 34 0.0 0.0 0.00 0.00 0.00 81 1012.8
20260509102918 14 34 0.0 0.0 0.00 0.00 0.00 81 1012.9
20260509102415 14 34 0.0 0.0 0.00 0.00 0.00 80 1012.8
20260509101911 14 34 0.0 0.0 0.00 0.00 0.00 79 1013.0
20260509101407 15 34 0.0 0.0 0.00 0.00 0.00 79 1012.7
20260509100905 15 34 0.0 0.0 0.00 0.00 0.00 79 1012.9
20260509100402 15 34 0.0 0.0 0.00 0.00 0.00 78 1012.9
20260509095858 15 25 0.0 0.0 0.00 0.00 0.00 77 1012.6
20260509095356 15 279 0.0 0.0 0.00 0.00 0.00 77 1012.8
20260509094853 16 250 0.0 0.0 0.00 0.00 0.00 76 1012.9
20260509094349 16 282 0.0 1.6 0.00 0.00 0.00 76 1012.7
20260509093847 16 261 3.2 3.2 0.00 0.00 0.00 76 1013.0
20260509093344 16 247 3.2 6.4 0.00 0.00 0.00 75 1012.7
20260509092843 16 264 3.2 3.2 0.00 0.00 0.00 76 1012.6
20260509092340 16 270 1.6 3.2 0.00 0.00 0.00 75 1012.6
20260509091838 16 257 4.8 6.4 0.00 0.00 0.00 75 1012.5
20260509091335 16 234 1.6 1.6 0.00 0.00 0.00 75 1012.8
20260509090832 16 234 1.6 3.2 0.00 0.00 0.00 74 1012.8
20260509090329 17 266 3.2 3.2 0.00 0.00 0.00 74 1012.8
20260509085826 17 247 4.8 6.4 0.00 0.00 0.00 74 1012.7
20260509085324 17 274 1.6 1.6 0.00 0.00 0.00 74 1012.7
20260509084820 17 258 1.6 1.6 0.00 0.00 0.00 73 1012.8
20260509084317 17 278 1.6 3.2 0.00 0.00 0.00 73 1012.5
20260509083815 17 27 0.0 0.0 0.00 0.00 0.00 73 1012.7
20260509083311 17 257 0.0 1.6 0.00 0.00 0.00 72 1012.9
20260509082808 17 236 1.6 3.2 0.00 0.00 0.00 72 1012.8
20260509082307 17 281 1.6 1.6 0.00 0.00 0.00 72 1013.0
20260509081802 17 276 0.0 1.6 0.00 0.00 0.00 72 1012.9
20260509081259 18 326 1.6 1.6 0.00 0.00 0.00 71 1013.0
20260509080757 18 247 1.6 1.6 0.00 0.00 0.00 72 1012.8
20260509080255 18 236 1.6 3.2 0.00 0.00 0.00 72 1012.8
20260509075753 18 246 4.8 6.4 0.00 0.00 0.00 71 1012.9
20260509075249 18 260 3.2 3.2 0.00 0.00 0.00 71 1013.0
20260509074746 18 257 3.2 3.2 0.00 0.00 0.00 71 1013.2
20260509074244 18 274 3.2 3.2 0.00 0.00 0.00 71 1013.1
20260509073740 18 277 1.6 3.2 0.00 0.00 0.00 71 1013.0
20260509073237 18 255 1.6 1.6 0.00 0.00 0.00 71 1012.8
20260509072733 18 1 0.0 0.0 0.00 0.00 0.00 70 1013.0
20260509072230 18 257 1.6 1.6 0.00 0.00 0.00 70 1013.0
20260509071727 18 254 3.2 3.2 0.00 0.00 0.00 70 1013.2
20260509071224 19 248 1.6 1.6 0.00 0.00 0.00 69 1013.0
20260509070721 19 267 1.6 1.6 0.00 0.00 0.00 68 1013.0
20260509070217 19 251 1.6 3.2 0.00 0.00 0.00 68 1013.0
20260509065714 19 268 1.6 3.2 0.00 0.00 0.00 67 1013.0
20260509065210 19 275 3.2 3.2 0.00 0.00 0.00 67 1012.9
20260509064707 20 269 3.2 3.2 0.00 0.00 0.00 67 1013.0
20260509064204 20 247 3.2 3.2 0.00 0.00 0.00 67 1013.1
20260509063701 20 265 4.8 6.4 0.00 0.00 0.00 67 1013.0
20260509063158 20 240 9.7 12.9 0.00 0.00 0.00 67 1012.9
20260509062655 20 268 1.6 1.6 0.00 0.00 0.00 67 1012.9
20260509062152 20 260 3.2 3.2 0.00 0.00 0.00 66 1012.9
20260509061649 20 231 3.2 6.4 0.00 0.00 0.00 66 1012.9
20260509061147 20 259 1.6 3.2 0.00 0.00 0.00 65 1012.9
20260509060644 20 244 3.2 3.2 0.00 0.00 0.00 65 1012.9
20260509060140 20 267 1.6 3.2 0.00 0.00 0.00 65 1012.8
20260509055635 20 256 3.2 3.2 0.00 0.00 0.00 65 1012.9
20260509055131 20 254 3.2 3.2 0.00 0.00 0.00 65 1012.8
20260509054628 20 269 0.0 0.0 0.00 0.00 0.00 65 1012.6
20260509054126 20 18 3.2 3.2 0.00 0.00 0.00 65 1012.7
20260509053624 20 5 0.0 0.0 0.00 0.00 0.00 64 1012.7
20260509053121 20 256 0.0 0.0 0.00 0.00 0.00 63 1012.8
20260509052619 20 255 3.2 3.2 0.00 0.00 0.00 63 1012.7
20260509052116 20 217 0.0 1.6 0.00 0.00 0.00 62 1012.9
20260509051614 20 216 0.0 0.0 0.00 0.00 0.00 63 1012.8
20260509051111 20 199 0.0 0.0 0.00 0.00 0.00 62 1012.7
20260509050608 20 207 0.0 0.0 0.00 0.00 0.00 62 1012.6
20260509050104 20 207 0.0 0.0 0.00 0.00 0.00 61 1012.7
20260509045602 20 207 0.0 0.0 0.00 0.00 0.00 60 1012.6
20260509045058 20 207 0.0 0.0 0.00 0.00 0.00 60 1012.6
20260509044555 20 206 0.0 0.0 0.00 0.00 0.00 60 1012.6
20260509044048 20 206 0.0 0.0 0.00 0.00 0.00 59 1012.3
20260509043544 21 206 0.0 0.0 0.00 0.00 0.00 58 1012.6
20260509043039 21 234 0.0 0.0 0.00 0.00 0.00 58 1012.4
20260509042536 21 239 0.0 0.0 0.00 0.00 0.00 57 1012.4
20260509042032 21 240 0.0 1.6 0.00 0.00 0.00 55 1012.3
20260509041529 21 241 0.0 0.0 0.00 0.00 0.00 54 1012.5
20260509041027 21 247 0.0 1.6 0.00 0.00 0.00 52 1012.2
20260509040525 22 254 1.6 1.6 0.00 0.00 0.00 51 1012.1
20260509040021 22 260 1.6 1.6 0.00 0.00 0.00 51 1012.3
20260509035518 22 257 0.0 1.6 0.00 0.00 0.00 50 1012.1
20260509035015 22 257 0.0 1.6 0.00 0.00 0.00 48 1011.9
20260509034513 22 261 0.0 1.6 0.00 0.00 0.00 46 1012.3
20260509034010 22 259 1.6 1.6 0.00 0.00 0.00 45 1012.0
20260509033506 22 327 1.6 1.6 0.00 0.00 0.00 43 1012.0
20260509032957 22 341 0.0 0.0 0.00 0.00 0.00 43 1012.2
20260509032455 22 322 0.0 0.0 0.00 0.00 0.00 42 1012.1
20260509031952 23 1 0.0 0.0 0.00 0.00 0.00 42 1012.1
20260509031449 23 2 0.0 0.0 0.00 0.00 0.00 41 1011.9
20260509030947 23 11 0.0 0.0 0.00 0.00 0.00 41 1011.8
20260509030445 24 24 0.0 0.0 0.00 0.00 0.00 40 1011.8
20260509025941 24 260 0.0 1.6 0.00 0.00 0.00 41 1011.9
20260509025437 25 245 3.2 6.4 0.00 0.00 0.00 40 1011.7
20260509024932 25 267 1.6 3.2 0.00 0.00 0.00 41 1011.6
20260509024429 25 265 1.6 1.6 0.00 0.00 0.00 41 1011.8
20260509023926 25 238 4.8 6.4 0.00 0.00 0.00 40 1011.7
20260509023423 26 247 1.6 1.6 0.00 0.00 0.00 39 1011.5
20260509022920 26 232 1.6 1.6 0.00 0.00 0.00 39 1011.6
20260509022417 27 249 1.6 1.6 0.00 0.00 0.00 38 1011.7
20260509021914 27 241 3.2 3.2 0.00 0.00 0.00 36 1011.4
20260509021411 27 256 1.6 1.6 0.00 0.00 0.00 35 1011.6
20260509020908 28 247 0.0 1.6 0.00 0.00 0.00 34 1011.4
20260509020407 28 227 0.0 1.6 0.00 0.00 0.00 32 1011.5
20260509015903 28 227 3.2 3.2 0.00 0.00 0.00 31 1011.4
20260509015402 28 254 1.6 3.2 0.00 0.00 0.00 29 1011.4
20260509014858 28 219 1.6 1.6 0.00 0.00 0.00 30 1011.5
20260509014355 28 228 3.2 3.2 0.00 0.00 0.00 31 1011.3
20260509013851 29 267 1.6 1.6 0.00 0.00 0.00 30 1011.5
20260509013348 29 251 3.2 3.2 0.00 0.00 0.00 29 1011.4
20260509012844 29 228 3.2 3.2 0.00 0.00 0.00 27 1011.6
20260509012341 29 75 6.4 8.0 0.00 0.00 0.00 26 1011.5
20260509011838 30 227 1.6 1.6 0.00 0.00 0.00 27 1011.4
20260509011336 30 246 4.8 6.4 0.00 0.00 0.00 28 1011.7
20260509010833 30 234 3.2 3.2 0.00 0.00 0.00 27 1011.5
20260509010330 30 257 1.6 3.2 0.00 0.00 0.00 25 1011.6
20260509005827 30 296 3.2 3.2 0.00 0.00 0.00 25 1011.6
20260509005325 30 177 3.2 3.2 0.00 0.00 0.00 26 1011.7
20260509004820 30 260 1.6 1.6 0.00 0.00 0.00 24 1011.7
20260509004316 30 214 3.2 3.2 0.00 0.00 0.00 27 1011.7
20260509003814 30 245 3.2 6.4 0.00 0.00 0.00 27 1011.8
20260509003312 30 51 1.6 1.6 0.00 0.00 0.00 27 1011.8
20260509002809 30 225 6.4 8.0 0.00 0.00 0.00 29 1011.6
20260509002307 30 275 4.8 6.4 0.00 0.00 0.00 30 1011.8
20260509001804 31 273 3.2 3.2 0.00 0.00 0.00 30 1011.8
20260509001259 31 255 4.8 6.4 0.00 0.00 0.00 28 1012.0
20260509000757 30 266 4.8 6.4 0.00 0.00 0.00 26 1011.9
20260509000256 30 254 3.2 8.0 0.00 0.00 0.00 29 1011.9
20260508235751 31 243 3.2 6.4 0.00 0.00 0.00 30 1012.1
20260508235248 30 271 8.0 9.7 0.00 0.00 0.00 30 1011.9
20260508234745 30 266 4.8 8.0 0.00 0.00 0.00 29 1011.9
20260508234241 30 254 4.8 6.4 0.00 0.00 0.00 28 1012.2
20260508233735 30 248 4.8 6.4 0.00 0.00 0.00 28 1012.1
20260508233233 30 226 11.3 12.9 0.00 0.00 0.00 28 1012.0
20260508232730 30 256 11.3 12.9 0.00 0.00 0.00 28 1012.3
20260508232226 30 245 9.7 11.3 0.00 0.00 0.00 27 1012.2
20260508231725 30 234 9.7 9.7 0.00 0.00 0.00 27 1012.5
20260508231221 30 267 11.3 14.5 0.00 0.00 0.00 27 1012.4
20260508230718 31 1 3.2 3.2 0.00 0.00 0.00 27 1012.3
20260508230214 30 292 8.0 11.3 0.00 0.00 0.00 26 1012.4
20260508225712 30 278 9.7 14.5 0.00 0.00 0.00 27 1012.5
20260508225208 30 261 6.4 11.3 0.00 0.00 0.00 26 1012.6
20260508224706 30 221 8.0 9.7 0.00 0.00 0.00 26 1012.6
20260508224203 30 275 8.0 9.7 0.00 0.00 0.00 28 1012.8
20260508223701 30 269 4.8 6.4 0.00 0.00 0.00 29 1012.9
20260508223158 30 240 4.8 6.4 0.00 0.00 0.00 27 1013.0
20260508222655 30 266 8.0 11.3 0.00 0.00 0.00 28 1013.0
20260508222153 29 263 6.4 9.7 0.00 0.00 0.00 29 1013.0
20260508221648 30 275 8.0 9.7 0.00 0.00 0.00 29 1013.3
20260508221144 30 242 6.4 11.3 0.00 0.00 0.00 30 1013.2
20260508220641 29 240 11.3 12.9 0.00 0.00 0.00 29 1013.1
20260508220138 30 297 8.0 9.7 0.00 0.00 0.00 30 1013.2
20260508215634 30 251 8.0 9.7 0.00 0.00 0.00 29 1013.4
20260508215131 30 275 4.8 6.4 0.00 0.00 0.00 31 1013.4
20260508214628 30 254 8.0 9.7 0.00 0.00 0.00 30 1013.7
20260508214125 29 269 8.0 9.7 0.00 0.00 0.00 29 1013.6
20260508213622 29 260 11.3 12.9 0.00 0.00 0.00 31 1013.8
20260508213118 29 271 6.4 8.0 0.00 0.00 0.00 30 1013.6
20260508212615 28 246 4.8 6.4 0.00 0.00 0.00 31 1013.8
20260508212111 29 240 11.3 17.7 0.00 0.00 0.00 30 1013.7
20260508211606 28 276 4.8 6.4 0.00 0.00 0.00 32 1013.8
20260508211103 29 273 3.2 3.2 0.00 0.00 0.00 33 1013.9
20260508210559 28 252 4.8 8.0 0.00 0.00 0.00 34 1014.0
20260508210057 28 272 9.7 12.9 0.00 0.00 0.00 35 1014.2